Location: Dehesa de la Cepeda
(40.6574°N, 4.3013°W)
Time: 19:32:20
(UTC+00:00)

BREEZE-M DEB (TANK) - Pass Details

Date: 05 July 2020
Orbit: 328 x 12049 km, 49.6° (Epoch: 06 August)

Event Time Altitude Azimuth Distance (km) Brightness Sun altitude
Rises 22:30:07 0° 289° (WNW) 4,543 7.5 -21.5°
Reaches altitude 10° 22:34:49 10° 303° (WNW) 2,436 6.2 -21.9°
Maximum altitude 22:38:32 22° 355° (N) 1,134 4.5 -22.3°
Enters shadow 22:40:37 11° 49° (NE) 1,349 4.3 -22.4°
